FW3922 Weather Reports


Display with metric or nautical units.
time (UTC)temp
F
wind
direction
speed
MPH
gust
MPH
rain 1hr
in
rain 24hr
in
rain mn
in
humidity
%
barometer
mb
20191018133234 86 320 8.0 22.0 0.00 0.00 0.00 23 1015.3
20191018132925 88 285 5.0 18.0 0.00 0.00 0.00 22 1005.9
20191018132731 89 81 5.0 11.0 0.00 0.00 0.00 23 1016.0
20191018132232 90 76 3.0 9.0 0.00 0.00 0.00 22 1016.2
20191018131925 90 1 2.0 7.0 0.00 0.00 0.00 20 1005.9
20191018131732 90 170 2.0 9.0 0.00 0.00 0.00 20 1016.2
20191018131232 90 230 2.0 7.0 0.00 0.00 0.00 20 1016.2
20191018130915 90 97 1.0 5.0 0.00 0.00 0.00 20 1005.9
20191018130729 90 343 1.0 4.0 0.00 0.00 0.00 19 1016.2
20191018130224 90 33 2.0 6.0 0.00 0.00 0.00 21 1016.4
20191018125927 90 136 2.0 12.0 0.00 0.00 0.00 20 1006.0
20191018125722 90 181 3.0 8.0 0.00 0.00 0.00 21 1016.4
20191018125220 90 233 6.0 15.0 0.00 0.00 0.00 20 1016.4
20191018124856 90 53 4.0 12.0 0.00 0.00 0.00 20 1006.1
20191018124719 90 242 5.0 15.0 0.00 0.00 0.00 20 1016.5
20191018124217 91 163 4.0 14.0 0.00 0.00 0.00 19 1016.7
20191018123919 91 146 4.0 12.0 0.00 0.00 0.00 20 1006.1
20191018123717 91 231 5.0 14.0 0.00 0.00 0.00 19 1016.6
20191018123212 91 223 4.0 12.0 0.00 0.00 0.00 19 1016.7
20191018122913 91 110 3.0 12.0 0.00 0.00 0.00 20 1006.2
20191018122713 90 226 5.0 13.0 0.00 0.00 0.00 20 1016.6
20191018122210 91 119 6.0 13.0 0.00 0.00 0.00 19 1016.8
20191018121920 91 46 4.0 10.0 0.00 0.00 0.00 20 1006.3
20191018121708 91 249 4.0 11.0 0.00 0.00 0.00 20 1016.8
20191018121205 91 268 3.0 9.0 0.00 0.00 0.00 20 1017.0
20191018120939 91 70 2.0 10.0 0.00 0.00 0.00 20 1006.6
20191018120705 90 256 2.0 11.0 0.00 0.00 0.00 20 1017.0
20191018120204 90 237 2.0 11.0 0.00 0.00 0.00 20 1017.1
20191018120001 90 146 1.0 5.0 0.00 0.00 0.00 20 1006.8
20191018115701 89 24 3.0 7.0 0.00 0.00 0.00 21 1017.1
20191018115202 90 105 4.0 10.0 0.00 0.00 0.00 20 1017.2
20191018114955 90 272 4.0 11.0 0.00 0.00 0.00 21 1007.0
20191018114701 90 223 5.0 11.0 0.00 0.00 0.00 20 1017.6
20191018114157 90 128 5.0 12.0 0.00 0.00 0.00 21 1017.7
20191018114020 90 89 3.0 11.0 0.00 0.00 0.00 21 1007.4
20191018113655 90 199 3.0 12.0 0.00 0.00 0.00 20 1017.7
20191018113153 90 242 3.0 11.0 0.00 0.00 0.00 22 1017.7
20191018113039 89 139 2.0 13.0 0.00 0.00 0.00 22 1007.8
20191018112645 89 248 5.0 11.0 0.00 0.00 0.00 22 1017.7
20191018112145 89 236 6.0 14.0 0.00 0.00 0.00 23 1017.7
20191018112005 89 120 5.0 13.0 0.00 0.00 0.00 22 1008.1
20191018111645 89 229 5.0 14.0 0.00 0.00 0.00 22 1018.0
20191018111145 89 226 4.0 10.0 0.00 0.00 0.00 22 1018.1
20191018111009 89 10 3.0 8.0 0.00 0.00 0.00 22 1008.3
20191018110642 89 349 3.0 10.0 0.00 0.00 0.00 23 1018.3
20191018110141 89 253 2.0 7.0 0.00 0.00 0.00 23 1018.4
20191018105959 89 305 2.0 9.0 0.00 0.00 0.00 24 1008.5
20191018105639 88 304 4.0 14.0 0.00 0.00 0.00 24 1018.3
20191018105135 87 228 5.0 14.0 0.00 0.00 0.00 23 1018.1
20191018104945 88 72 5.0 11.0 0.00 0.00 0.00 23 1008.6
20191018104633 88 278 5.0 13.0 0.00 0.00 0.00 25 1018.3
20191018104133 88 279 5.0 13.0 0.00 0.00 0.00 24 1018.4
20191018103944 88 68 3.0 11.0 0.00 0.00 0.00 24 1008.6
20191018103632 88 256 5.0 12.0 0.00 0.00 0.00 25 1018.4
20191018103131 87 273 5.0 12.0 0.00 0.00 0.00 25 1018.4
20191018102947 87 114 3.0 15.0 0.00 0.00 0.00 25 1008.8
20191018102630 87 209 5.0 16.0 0.00 0.00 0.00 24 983.8
20191018102129 87 259 5.0 16.0 0.00 0.00 0.00 25 1018.5
20191018101931 87 46 4.0 15.0 0.00 0.00 0.00 25 1009.1
20191018101626 87 187 5.0 16.0 0.00 0.00 0.00 25 1018.5
20191018101124 85 320 6.0 13.0 0.00 0.00 0.00 25 1018.1
20191018100951 86 108 5.0 13.0 0.00 0.00 0.00 25 1009.1
20191018100624 86 235 6.0 13.0 0.00 0.00 0.00 25 1018.6
20191018100122 86 273 5.0 13.0 0.00 0.00 0.00 27 1018.6
20191018100005 86 146 5.0 16.0 0.00 0.00 0.00 25 1009.4
20191018095620 86 177 6.0 17.0 0.00 0.00 0.00 26 1018.7
20191018095119 86 247 6.0 17.0 0.00 0.00 0.00 25 1018.9
20191018095006 86 59 4.0 16.0 0.00 0.00 0.00 25 1009.7
20191018094620 85 243 5.0 12.0 0.00 0.00 0.00 27 984.5
20191018094117 85 217 5.0 12.0 0.00 0.00 0.00 27 1018.7
20191018094007 84 150 5.0 11.0 0.00 0.00 0.00 28 1009.9
20191018093615 85 221 6.0 12.0 0.00 0.00 0.00 26 1018.8
20191018093114 84 200 5.0 12.0 0.00 0.00 0.00 26 1018.8
20191018093008 84 327 3.0 13.0 0.00 0.00 0.00 27 1010.1
20191018092613 84 231 4.0 14.0 0.00 0.00 0.00 26 1018.9
20191018092113 84 325 5.0 14.0 0.00 0.00 0.00 26 1019.0
20191018091948 84 82 4.0 13.0 0.00 0.00 0.00 28 1010.2
20191018091610 84 148 5.0 13.0 0.00 0.00 0.00 27 1019.0
20191018091111 83 190 5.0 13.0 0.00 0.00 0.00 29 1019.0
20191018090922 83 39 4.0 12.0 0.00 0.00 0.00 28 1010.3
20191018090610 83 222 5.0 13.0 0.00 0.00 0.00 27 1019.0
20191018090110 83 166 5.0 13.0 0.00 0.00 0.00 28 1019.0
20191018085924 82 81 4.0 13.0 0.00 0.00 0.00 27 1010.6
20191018085609 82 285 5.0 14.0 0.00 0.00 0.00 31 1019.0
20191018085106 81 207 6.0 14.0 0.00 0.00 0.00 29 1018.8
20191018084935 81 80 5.0 13.0 0.00 0.00 0.00 29 1010.8
20191018084604 81 207 5.0 13.0 0.00 0.00 0.00 29 1019.0
20191018084104 81 309 4.0 13.0 0.00 0.00 0.00 29 1019.0
20191018083927 81 119 3.0 16.0 0.00 0.00 0.00 28 1011.0
20191018083604 81 111 5.0 13.0 0.00 0.00 0.00 28 1019.1
20191018083100 80 242 7.0 13.0 0.00 0.00 0.00 30 1019.1
20191018082924 80 1 6.0 16.0 0.00 0.00 0.00 29 1011.2
20191018082556 80 170 6.0 17.0 0.00 0.00 0.00 29 1019.1
20191018082057 81 239 4.0 17.0 0.00 0.00 0.00 28 1019.4
20191018081921 82 84 3.0 12.0 0.00 0.00 0.00 29 1011.3
20191018081555 81 274 4.0 13.0 0.00 0.00 0.00 29 1019.5
20191018081054 80 81 5.0 13.0 0.00 0.00 0.00 30 1019.4
20191018080942 81 135 4.0 12.0 0.00 0.00 0.00 29 1011.4
20191018080554 80 335 5.0 12.0 0.00 0.00 0.00 30 1019.4
20191018080052 80 266 5.0 12.0 0.00 0.00 0.00 31 1019.4
20191018075928 80 96 4.0 11.0 0.00 0.00 0.00 29 1011.5
20191018075553 80 283 5.0 12.0 0.00 0.00 0.00 31 1019.3
20191018075050 80 330 5.0 12.0 0.00 0.00 0.00 29 1019.5
20191018074918 80 56 4.0 12.0 0.00 0.00 0.00 29 1011.6
20191018074550 80 297 4.0 10.0 0.00 0.00 0.00 30 1019.5
20191018074050 79 248 5.0 10.0 0.00 0.00 0.00 31 1019.4
20191018073914 79 173 4.0 12.0 0.00 0.00 0.00 31 1011.8
20191018073550 78 306 5.0 13.0 0.00 0.00 0.00 31 1019.4
20191018073048 79 228 5.0 13.0 0.00 0.00 0.00 30 1019.5
20191018072937 79 150 3.0 12.0 0.00 0.00 0.00 30 1011.9
20191018072546 79 226 3.0 11.0 0.00 0.00 0.00 30 1019.6
20191018072046 79 242 2.0 11.0 0.00 0.00 0.00 31 1019.8
20191018071940 79 129 1.0 13.0 0.00 0.00 0.00 30 1012.1
20191018071545 79 219 2.0 9.0 0.00 0.00 0.00 31 1019.7
20191018071043 78 278 4.0 14.0 0.00 0.00 0.00 32 1019.6
20191018070942 78 158 3.0 13.0 0.00 0.00 0.00 31 1012.2
20191018070538 77 298 4.0 14.0 0.00 0.00 0.00 32 1019.4
20191018070033 77 316 4.0 12.0 0.00 0.00 0.00 33 1019.5
20191018065921 77 117 3.0 9.0 0.00 0.00 0.00 30 1012.2
20191018065530 78 145 3.0 9.0 0.00 0.00 0.00 31 1019.5
20191018065029 77 332 3.0 9.0 0.00 0.00 0.00 34 1019.4
20191018064921 77 143 2.0 8.0 0.00 0.00 0.00 33 1012.2
20191018064526 77 286 3.0 8.0 0.00 0.00 0.00 33 1019.4
20191018064023 76 328 3.0 9.0 0.00 0.00 0.00 33 1019.3
20191018063930 76 157 2.0 8.0 0.00 0.00 0.00 33 1012.3
20191018063521 76 261 4.0 9.0 0.00 0.00 0.00 32 1019.5
20191018063021 76 315 3.0 9.0 0.00 0.00 0.00 33 1019.5
20191018062904 76 171 2.0 8.0 0.00 0.00 0.00 33 1012.4
20191018062518 76 238 3.0 9.0 0.00 0.00 0.00 32 1019.4
20191018062018 76 3 3.0 7.0 0.00 0.00 0.00 33 1019.4
20191018061851 76 158 2.0 9.0 0.00 0.00 0.00 34 1012.4
20191018061516 76 281 3.0 9.0 0.00 0.00 0.00 33 1019.4
20191018061016 75 345 3.0 10.0 0.00 0.00 0.00 34 1019.3
20191018060830 75 172 2.0 9.0 0.00 0.00 0.00 34 1012.4
20191018060515 75 242 3.0 10.0 0.00 0.00 0.00 34 1019.4
20191018060008 75 328 2.0 9.0 0.00 0.00 0.00 32 1019.3
20191018055758 75 98 0.0 2.0 0.00 0.00 0.00 34 1012.5
20191018055506 75 304 1.0 3.0 0.00 0.00 0.00 34 1019.3
20191018055004 74 337 1.0 4.0 0.00 0.00 0.00 36 1019.0
20191018054815 74 146 1.0 3.0 0.00 0.00 0.00 34 1012.6
20191018054501 73 238 2.0 4.0 0.00 0.00 0.00 34 1018.9
20191018053959 73 296 2.0 4.0 0.00 0.00 0.00 35 1018.9
20191018053745 73 164 1.0 3.0 0.00 0.00 0.00 34 1012.6
20191018053458 73 334 1.0 4.0 0.00 0.00 0.00 33 1018.9
20191018052959 73 316 1.0 4.0 0.00 0.00 0.00 33 1018.8
20191018052723 74 150 0.0 2.0 0.00 0.00 0.00 34 1012.8
20191018052453 74 301 0.0 2.0 0.00 0.00 0.00 33 1019.0
20191018051940 75 291 0.0 1.0 0.00 0.00 0.00 31 1019.4
20191018051739 75 172 0.0 0.0 0.00 0.00 0.00 32 1012.7
20191018051436 75 342 0.0 1.0 0.00 0.00 0.00 31 1019.4
20191018050923 75 342 0.0 1.0 0.00 0.00 0.00 30 1019.4
20191018050736 75 172 0.0 0.0 0.00 0.00 0.00 30 1012.6
20191018050415 75 320 0.0 0.0 0.00 0.00 0.00 31 1019.3
20191018045904 73 319 0.0 1.0 0.00 0.00 0.00 33 1018.8
20191018045755 72 150 0.0 0.0 0.00 0.00 0.00 33 1012.6
20191018045400 72 320 0.0 1.0 0.00 0.00 0.00 32 1018.7
20191018044859 72 320 0.0 1.0 0.00 0.00 0.00 33 1018.6
20191018044804 72 151 0.0 0.0 0.00 0.00 0.00 33 1012.7
20191018044339 71 321 0.0 1.0 0.00 0.00 0.00 33 1018.4
20191018043805 71 66 0.0 1.0 0.00 0.00 0.00 35 1018.1
20191018043750 70 256 0.0 0.0 0.00 0.00 0.00 35 1012.6
20191018043304 70 76 0.0 1.0 0.00 0.00 0.00 34 1017.9
20191018042805 69 76 0.0 1.0 0.00 0.00 0.00 35 1017.6
20191018042259 68 76 0.0 1.0 0.00 0.00 0.00 38 1017.4
20191018041800 67 76 1.0 1.0 0.00 0.00 0.00 38 1017.0
20191018041755 67 266 0.0 0.0 0.00 0.00 0.00 39 1012.4
20191018041240 66 76 1.0 1.0 0.00 0.00 0.00 39 1016.8
20191018040803 66 266 0.0 0.0 0.00 0.00 0.00 38 1012.3
20191018040740 66 76 0.0 1.0 0.00 0.00 0.00 38 1016.7
20191018040238 66 75 1.0 1.0 0.00 0.00 0.00 39 1016.7
20191018035739 65 265 0.0 0.0 0.00 0.00 0.00 38 1012.3
20191018035729 65 75 1.0 1.0 0.00 0.00 0.00 38 1016.7
20191018035155 66 47 0.0 2.0 0.00 0.00 0.00 38 1016.6
20191018034713 65 205 0.0 1.0 0.00 0.00 0.00 38 1012.2
20191018034655 65 31 1.0 4.0 0.00 0.00 0.00 38 1016.6
20191018034139 65 39 1.0 4.0 0.00 0.00 0.00 39 1016.5
20191018033648 65 262 0.0 2.0 0.00 0.00 0.00 39 1012.2
20191018033638 65 97 1.0 3.0 0.00 0.00 0.00 39 1016.2
20191018033136 64 121 1.0 2.0 0.00 0.00 0.00 41 1016.0
20191018032632 64 309 0.0 1.0 0.00 0.00 0.00 41 1012.2
20191018032628 64 119 1.0 2.0 0.00 0.00 0.00 41 1016.1
20191018032125 64 118 1.0 2.0 0.00 0.00 0.00 40 1016.0
20191018031631 64 271 0.0 2.0 0.00 0.00 0.00 41 1012.0
20191018031620 64 81 1.0 2.0 0.00 0.00 0.00 41 1016.0
20191018031104 64 72 1.0 2.0 0.00 0.00 0.00 41 1016.0
20191018030622 64 274 0.0 2.0 0.00 0.00 0.00 41 1012.0
20191018030601 64 0.0 0.0 0.00 0.00 0.00 41
20191018025634 64 212 0.0 0.0 0.00 0.00 0.00 42 1011.9
20191018025456 64 95 1.0 2.0 0.00 0.00 0.00 41 1015.9
20191018024956 64 73 1.0 2.0 0.00 0.00 0.00 43 1016.0
20191018024634 65 256 0.0 0.0 0.00 0.00 0.00 43 1012.0
20191018024457 65 67 1.0 4.0 0.00 0.00 0.00 41 1016.0
20191018023956 65 62 1.0 4.0 0.00 0.00 0.00 41 1016.1
20191018023617 65 261 0.0 2.0 0.00 0.00 0.00 41 1011.8
20191018023454 65 104 1.0 2.0 0.00 0.00 0.00 41 1016.0
20191018022952 65 47 1.0 3.0 0.00 0.00 0.00 41 1016.1
20191018022555 65 259 0.0 2.0 0.00 0.00 0.00 41 1011.7
20191018022452 65 71 1.0 3.0 0.00 0.00 0.00 41 1016.1
20191018021949 65 60 1.0 3.0 0.00 0.00 0.00 42 1016.1
20191018021602 65 263 0.0 2.0 0.00 0.00 0.00 41 1011.7
20191018021447 65 49 1.0 3.0 0.00 0.00 0.00 42 1016.0
20191018020948 65 76 1.0 3.0 0.00 0.00 0.00 42 1016.1
20191018020555 65 257 0.0 1.0 0.00 0.00 0.00 41 1011.9
20191018020447 65 4 1.0 2.0 0.00 0.00 0.00 42 1016.1
20191018015948 65 92 1.0 2.0 0.00 0.00 0.00 42 1016.1
20191018015606 65 224 0.0 2.0 0.00 0.00 0.00 42 1012.1
20191018015445 65 12 1.0 3.0 0.00 0.00 0.00 42 1016.2
20191018014940 65 43 2.0 3.0 0.00 0.00 0.00 42 1016.2
20191018014533 65 270 1.0 3.0 0.00 0.00 0.00 41 1012.0
20191018014427 65 62 1.0 3.0 0.00 0.00 0.00 42 1016.2
20191018013926 65 46 1.0 4.0 0.00 0.00 0.00 42 1016.4
20191018013521 65 258 0.0 3.0 0.00 0.00 0.00 42 1011.9
20191018013425 65 78 1.0 4.0 0.00 0.00 0.00 42 1016.2
20191018012924 65 79 1.0 4.0 0.00 0.00 0.00 42 1016.2
20191018012512 65 269 0.0 3.0 0.00 0.00 0.00 42 1012.0
20191018012422 65 37 1.0 4.0 0.00 0.00 0.00 42 1016.4
20191018011922 65 85 1.0 3.0 0.00 0.00 0.00 42 1016.4
20191018011504 65 276 0.0 2.0 0.00 0.00 0.00 42 1012.1
20191018011417 65 52 1.0 3.0 0.00 0.00 0.00 42 1016.4
20191018010917 65 74 1.0 2.0 0.00 0.00 0.00 42 1016.4
20191018010443 65 214 0.0 1.0 0.00 0.00 0.00 42 1011.8
20191018010401 65 48 0.0 2.0 0.00 0.00 0.00 42 1016.2
20191018005858 65 37 0.0 1.0 0.00 0.00 0.00 41 1016.1
20191018005506 65 224 0.0 0.0 0.00 0.00 0.00 42 1011.9
20191018005351 65 34 1.0 2.0 0.00 0.00 0.00 42 1016.1
20191018004837 66 34 1.0 2.0 0.00 0.00 0.00 42 1016.1
20191018004530 66 259 0.0 2.0 0.00 0.00 0.00 42 1011.7
20191018004334 66 34 1.0 2.0 0.00 0.00 0.00 42 1016.4
20191018003824 66 39 1.0 2.0 0.00 0.00 0.00 42 1016.2
20191018003535 66 242 0.0 4.0 0.00 0.00 0.00 42 1011.8
20191018003311 66 46 1.0 3.0 0.00 0.00 0.00 42 1016.4
20191018002805 66 14 1.0 3.0 0.00 0.00 0.00 41 1016.4
20191018002557 66 219 0.0 4.0 0.00 0.00 0.00 41 1011.8
20191018002304 66 42 2.0 5.0 0.00 0.00 0.00 42 1016.5
20191018001800 67 32 2.0 5.0 0.00 0.00 0.00 41 1016.6
20191018001620 67 217 1.0 4.0 0.00 0.00 0.00 41 1011.9
20191018001257 66 32 2.0 4.0 0.00 0.00 0.00 41 1016.6
20191018000757 67 46 3.0 5.0 0.00 0.00 0.00 41 1016.6
20191018000643 67 233 2.0 5.0 0.00 0.00 0.00 41 1011.8
20191018000256 67 56 3.0 5.0 0.00 0.00 0.00 41 1016.7
20191017235753 67 31 3.0 4.0 0.00 0.00 0.00 42 1016.7
20191017235613 67 257 2.0 5.0 0.00 0.00 0.00 41 1012.0
20191017235250 67 69 3.0 6.0 0.00 0.00 0.00 41 1016.6
20191017234749 67 18 2.0 6.0 0.00 0.00 0.00 41 1016.6
20191017234601 67 186 1.0 5.0 0.00 0.00 0.00 41 1011.8
20191017234246 67 29 2.0 6.0 0.00 0.00 0.00 41 1016.7
20191017233736 67 19 2.0 6.0 0.00 0.00 0.00 40 1016.8
20191017233536 67 203 1.0 4.0 0.00 0.00 0.00 40 1012.0
20191017233235 67 3 1.0 4.0 0.00 0.00 0.00 40 1016.8
20191017232728 67 12 1.0 4.0 0.00 0.00 0.00 41 1016.9
20191017232505 67 242 0.0 3.0 0.00 0.00 0.00 41 1012.0
20191017232227 67 50 1.0 4.0 0.00 0.00 0.00 41 1017.0
20191017231724 67 65 1.0 4.0 0.00 0.00 0.00 40 1017.1
20191017231512 67 265 0.0 3.0 0.00 0.00 0.00 40 1012.1
20191017231222 67 57 2.0 4.0 0.00 0.00 0.00 41 1017.0
20191017230720 68 5 1.0 3.0 0.00 0.00 0.00 40 1017.1
20191017230444 68 236 1.0 2.0 0.00 0.00 0.00 40 1012.1
20191017230219 68 56 2.0 4.0 0.00 0.00 0.00 40 1017.2
20191017225718 68 36 2.0 5.0 0.00 0.00 0.00 40 1017.2
20191017225416 68 189 1.0 5.0 0.00 0.00 0.00 40 1012.2
20191017225217 68 346 2.0 5.0 0.00 0.00 0.00 40 1017.4
20191017224718 68 43 2.0 6.0 0.00 0.00 0.00 40 1017.5
20191017224412 69 195 1.0 8.0 0.00 0.00 0.00 40 1012.3
20191017224217 69 43 3.0 6.0 0.00 0.00 0.00 40 1017.6
20191017223716 69 348 3.0 7.0 0.00 0.00 0.00 39 1017.6
20191017223343 69 219 2.0 8.0 0.00 0.00 0.00 39 1012.2
20191017223216 69 22 3.0 9.0 0.00 0.00 0.00 39 1017.7
20191017222716 69 356 3.0 9.0 0.00 0.00 0.00 39 1017.8
20191017222347 69 215 2.0 8.0 0.00 0.00 0.00 39 1012.3
20191017222214 69 19 4.0 9.0 0.00 0.00 0.00 39 1017.8
20191017221708 70 19 4.0 9.0 0.00 0.00 0.00 39 1017.9
20191017221318 70 221 3.0 8.0 0.00 0.00 0.00 38 1012.4
20191017221207 70 3 4.0 8.0 0.00 0.00 0.00 39 1018.0
20191017220704 70 353 4.0 9.0 0.00 0.00 0.00 39 1017.9
20191017220259 70 229 3.0 8.0 0.00 0.00 0.00 39 1012.3
20191017220204 70 17 4.0 9.0 0.00 0.00 0.00 39 1018.0
20191017215704 70 351 3.0 7.0 0.00 0.00 0.00 40 1018.1
20191017215231 71 216 2.0 6.0 0.00 0.00 0.00 39 1012.5
20191017215204 71 19 3.0 7.0 0.00 0.00 0.00 39 1018.3
20191017214705 71 331 4.0 9.0 0.00 0.00 0.00 38 1018.4
20191017214218 71 203 3.0 9.0 0.00 0.00 0.00 38 1012.5
20191017214204 71 17 4.0 9.0 0.00 0.00 0.00 38 1018.5
20191017213704 71 36 4.0 10.0 0.00 0.00 0.00 37 1018.5
20191017213220 72 194 4.0 9.0 0.00 0.00 0.00 37 1012.6
20191017213203 72 38 5.0 10.0 0.00 0.00 0.00 37 1018.6
20191017212703 72 42 4.0 10.0 0.00 0.00 0.00 37 1018.7
20191017212228 72 219 3.0 11.0 0.00 0.00 0.00 37 1012.6
20191017212200 72 52 4.0 7.0 0.00 0.00 0.00 37 1018.7
20191017211700 73 23 5.0 9.0 0.00 0.00 0.00 36 1018.8
20191017211236 73 154 4.0 11.0 0.00 0.00 0.00 36 1012.6
20191017211159 73 7 5.0 12.0 0.00 0.00 0.00 36 1018.9
20191017210658 73 325 5.0 12.0 0.00 0.00 0.00 36 1018.9
20191017210256 74 165 4.0 9.0 0.00 0.00 0.00 36 1012.7
20191017210157 74 314 5.0 10.0 0.00 0.00 0.00 35 1019.0
20191017205656 74 335 4.0 10.0 0.00 0.00 0.00 35 1018.9
20191017205313 74 195 3.0 8.0 0.00 0.00 0.00 37 1012.5
20191017205156 74 325 3.0 8.0 0.00 0.00 0.00 36 1019.1
20191017204656 74 334 3.0 9.0 0.00 0.00 0.00 36 1019.0
20191017204327 75 242 2.0 8.0 0.00 0.00 0.00 36 1012.5
20191017204157 75 14 3.0 9.0 0.00 0.00 0.00 36 1019.0
20191017203655 75 335 2.0 6.0 0.00 0.00 0.00 36 1019.0
20191017203300 75 176 1.0 4.0 0.00 0.00 0.00 35 1012.3
20191017203154 75 51 2.0 5.0 0.00 0.00 0.00 36 1019.1
20191017202652 75 346 2.0 5.0 0.00 0.00 0.00 36 1019.0
20191017202317 75 158 0.0 3.0 0.00 0.00 0.00 36 1012.3
20191017202152 75 339 1.0 4.0 0.00 0.00 0.00 37 1019.0
20191017201648 75 325 1.0 2.0 0.00 0.00 0.00 37 1019.0
20191017201257 75 186 1.0 4.0 0.00 0.00 0.00 37 1012.4
20191017201144 75 20 2.0 5.0 0.00 0.00 0.00 36 1019.0
20191017200644 75 34 2.0 5.0 0.00 0.00 0.00 36 1019.1
20191017200243 75 209 1.0 7.0 0.00 0.00 0.00 36 1012.2
20191017200143 75 28 2.0 4.0 0.00 0.00 0.00 36 1019.0
20191017195640 75 351 2.0 8.0 0.00 0.00 0.00 37 1019.0
20191017195257 76 224 1.0 7.0 0.00 0.00 0.00 36 1012.3
20191017195135 76 358 2.0 8.0 0.00 0.00 0.00 36 1019.3
20191017194633 76 26 3.0 6.0 0.00 0.00 0.00 36 1019.3
20191017194245 76 221 2.0 5.0 0.00 0.00 0.00 36 1012.5
20191017194129 76 26 3.0 6.0 0.00 0.00 0.00 36 1019.4
20191017193629 76 26 3.0 6.0 0.00 0.00 0.00 36 1019.6
20191017193300 77 216 3.0 8.0 0.00 0.00 0.00 36 1012.6
20191017193130 76 46 4.0 9.0 0.00 0.00 0.00 36 1019.8
20191017192627 77 36 4.0 9.0 0.00 0.00 0.00 36 1019.9
20191017192323 77 224 3.0 8.0 0.00 0.00 0.00 35 1012.9
20191017192127 77 37 4.0 8.0 0.00 0.00 0.00 35 1020.2
20191017191628 77 53 4.0 9.0 0.00 0.00 0.00 35 1020.3
20191017191256 78 221 4.0 10.0 0.00 0.00 0.00 35 1013.0
20191017191128 78 13 5.0 11.0 0.00 0.00 0.00 35 1020.4
20191017190627 78 60 5.0 11.0 0.00 0.00 0.00 36 1020.4
20191017190232 78 207 4.0 10.0 0.00 0.00 0.00 36 1012.9
20191017190124 78 79 5.0 11.0 0.00 0.00 0.00 36 1020.4
20191017185623 78 55 4.0 11.0 0.00 0.00 0.00 36 1020.4
20191017185206 78 281 3.0 9.0 0.00 0.00 0.00 36 1013.0
20191017185124 78 48 4.0 8.0 0.00 0.00 0.00 36 1020.4
20191017184622 78 55 5.0 12.0 0.00 0.00 0.00 36 1020.3
20191017184219 78 256 3.0 9.0 0.00 0.00 0.00 36 1012.8
20191017184116 78 62 4.0 12.0 0.00 0.00 0.00 36 1020.3
20191017183617 78 126 2.0 5.0 0.00 0.00 0.00 36 1020.0
20191017183238 78 255 0.0 2.0 0.00 0.00 0.00 36 1012.3
20191017183116 78 93 1.0 1.0 0.00 0.00 0.00 36 1019.9
20191017182617 78 242 1.0 3.0 0.00 0.00 0.00 35 1019.4
20191017182235 79 72 1.0 2.0 0.00 0.00 0.00 35 1011.6
20191017182107 79 242 2.0 3.0 0.00 0.00 0.00 35 1019.3
20191017181604 79 242 1.0 3.0 0.00 0.00 0.00 35 1019.1
20191017181251 79 106 0.0 3.0 0.00 0.00 0.00 35 1011.4
20191017181058 79 340 1.0 4.0 0.00 0.00 0.00 34 1019.1
20191017180555 79 330 1.0 4.0 0.00 0.00 0.00 34 1019.1
20191017180246 80 140 0.0 3.0 0.00 0.00 0.00 35 1011.3
20191017180053 80 316 1.0 4.0 0.00 0.00 0.00 34 1019.1
20191017175551 80 313 2.0 6.0 0.00 0.00 0.00 34 1019.1
20191017175256 80 214 1.0 2.0 0.00 0.00 0.00 33 1011.2
20191017175048 80 65 2.0 6.0 0.00 0.00 0.00 34 1019.1
20191017174547 80 144 2.0 5.0 0.00 0.00 0.00 34 1019.3
20191017174316 80 298 0.0 4.0 0.00 0.00 0.00 34 1011.3
20191017174041 80 90 1.0 2.0 0.00 0.00 0.00 33 1019.4
20191017173541 80 60 1.0 2.0 0.00 0.00 0.00 33 1019.0
20191017173242 80 73 0.0 2.0 0.00 0.00 0.00 33 1011.1
20191017173037 80 243 1.0 3.0 0.00 0.00 0.00 33 1019.0
20191017172527 80 299 1.0 3.0 0.00 0.00 0.00 33 1018.9
20191017172235 81 143 0.0 0.0 0.00 0.00 0.00 33 1011.0
20191017172026 81 313 1.0 2.0 0.00 0.00 0.00 33 1019.1
20191017171512 81 15 2.0 5.0 0.00 0.00 0.00 33 1019.0
20191017171256 81 160 1.0 6.0 0.00 0.00 0.00 33 1010.9
20191017171005 81 255 3.0 7.0 0.00 0.00 0.00 32 1019.1
20191017170504 81 266 5.0 10.0 0.00 0.00 0.00 32 1019.3
20191017170256 81 63 4.0 8.0 0.00 0.00 0.00 31 1011.1
20191017170004 81 207 3.0 10.0 0.00 0.00 0.00 31 1019.3
20191017165504 81 145 3.0 8.0 0.00 0.00 0.00 32 1019.3
20191017165235 81 25 2.0 12.0 0.00 0.00 0.00 33 1011.1
20191017165004 81 209 4.0 9.0 0.00 0.00 0.00 32 1019.1
20191017164459 81 242 5.0 13.0 0.00 0.00 0.00 33 1019.1
20191017163955 80 242 5.0 13.0 0.00 0.00 0.00 35 1019.0
20191017163452 80 258 5.0 10.0 0.00 0.00 0.00 35 1019.1
20191017163225 81 70 4.0 10.0 0.00 0.00 0.00 35 1011.2
20191017162952 81 226 5.0 11.0 0.00 0.00 0.00 35 1019.4
20191017162449 81 221 5.0 11.0 0.00 0.00 0.00 35 1019.5
20191017162214 81 59 3.0 6.0 0.00 0.00 0.00 36 1011.3
20191017161947 82 149 4.0 9.0 0.00 0.00 0.00 35 1019.6
20191017161447 82 171 4.0 8.0 0.00 0.00 0.00 33 1019.6
20191017161224 82 47 3.0 6.0 0.00 0.00 0.00 33 1011.1
20191017160945 82 224 4.0 8.0 0.00 0.00 0.00 33 1019.5
20191017160443 82 230 3.0 7.0 0.00 0.00 0.00 33 1019.3
20191017160204 82 70 2.0 8.0 0.00 0.00 0.00 33 1010.9
20191017155940 82 230 3.0 6.0 0.00 0.00 0.00 33 1019.3
20191017155439 82 242 3.0 8.0 0.00 0.00 0.00 33 1019.3
20191017155207 83 72 3.0 8.0 0.00 0.00 0.00 33 1010.7
20191017154937 83 285 4.0 9.0 0.00 0.00 0.00 33 1019.1
20191017154436 83 267 4.0 9.0 0.00 0.00 0.00 33 1019.0
20191017154146 83 95 2.0 7.0 0.00 0.00 0.00 33 1010.4
20191017153934 83 242 3.0 8.0 0.00 0.00 0.00 33 1019.0
20191017153421 83 253 2.0 5.0 0.00 0.00 0.00 33 1019.0
20191017153128 83 243 1.0 7.0 0.00 0.00 0.00 32 1010.5
20191017152919 83 247 2.0 8.0 0.00 0.00 0.00 32 1019.1
20191017152419 83 275 1.0 8.0 0.00 0.00 0.00 33 1019.3
20191017152109 83 127 1.0 7.0 0.00 0.00 0.00 32 1010.5
20191017151905 83 271 2.0 6.0 0.00 0.00 0.00 33 1019.1
20191017151404 83 286 2.0 5.0 0.00 0.00 0.00 32 1019.1
20191017151112 83 136 1.0 5.0 0.00 0.00 0.00 32 1010.5
20191017150904 83 278 2.0 7.0 0.00 0.00 0.00 33 1019.1
20191017150401 83 230 2.0 7.0 0.00 0.00 0.00 32 1019.0
20191017150037 83 149 0.0 3.0 0.00 0.00 0.00 32 1010.3
20191017145859 83 290 1.0 5.0 0.00 0.00 0.00 32 1019.1
20191017145357 83 272 1.0 5.0 0.00 0.00 0.00 33 1019.1
20191017145042 84 103 1.0 8.0 0.00 0.00 0.00 32 1010.3
20191017144854 84 306 2.0 6.0 0.00 0.00 0.00 33 1019.1
20191017144346 84 287 1.0 6.0 0.00 0.00 0.00 32 1019.1
20191017144050 84 171 1.0 8.0 0.00 0.00 0.00 32 1010.3
20191017143845 84 278 2.0 9.0 0.00 0.00 0.00 32 1019.3
20191017143335 84 311 3.0 9.0 0.00 0.00 0.00 31 1019.3
20191017143038 85 96 1.0 3.0 0.00 0.00 0.00 31 1010.3
20191017142835 85 321 2.0 4.0 0.00 0.00 0.00 31 1019.4
20191017142336 85 299 1.0 4.0 0.00 0.00 0.00 31 1019.5
20191017142013 85 57 0.0 6.0 0.00 0.00 0.00 31 1010.4
20191017141836 85 227 1.0 6.0 0.00 0.00 0.00 30 1019.6
20191017141333 86 314 2.0 6.0 0.00 0.00 0.00 31 1019.6
20191017141029 86 166 2.0 7.0 0.00 0.00 0.00 30 1010.4
20191017140831 86 288 3.0 7.0 0.00 0.00 0.00 29 1019.6
20191017140332 87 224 3.0 7.0 0.00 0.00 0.00 29 1019.9
20191017140032 87 134 2.0 10.0 0.00 0.00 0.00 31 1010.4
20191017135829 87 314 4.0 8.0 0.00 0.00 0.00 29 1019.9
20191017135329 87 335 5.0 9.0 0.00 0.00 0.00 29 1019.9
20191017135046 87 150 4.0 10.0 0.00 0.00 0.00 29 1010.5
20191017134826 87 341 5.0 11.0 0.00 0.00 0.00 28 1020.2
20191017134321 88 307 4.0 11.0 0.00 0.00 0.00 28 1020.3
20191017134014 88 86 3.0 9.0 0.00 0.00 0.00 29 1010.6
20191017133821 88 326 4.0 10.0 0.00 0.00 0.00 29 1020.4